COSMOS 1275 DEB, 12690

Orbit data source: Space-Track

COSMOS 1275 DEB, 12690 is space debris in LEO originally from a launch on Thu, 04 Jun 1981 UTC launched from the Plesetsk Missile And Space Complex (PKMTR). Debris objects in space refer to the collection of defunct objects orbiting the Earth. Examples of debris include non-operational satellites, rocket bodies, and fragments generated from explosions, collisions, or faulty payload assembly.

Loading next visibility...
Identifier
12690, 1981-053AJ
Orbit
LEO
Last TLE update
10 hours ago
Origin
Manufacturer
Unknown
Mission
Spacecraft
Bus & Motor
Unknown
Mass
Unknown
Launch date (UTC)
1981-06-04 (44 years ago)
Launch vehicle
Unknown
Launch site
Plesetsk Missile And Space Complex (PKMTR)
Object type
Payload
Rocket body
Debris
Shape & HBR
Unknown
Radar Cross Section
Medium (>0.1 m² and <1 m²)

Expand to show TLE details & history

TLE from 10 hours ago
0 COSMOS 1275 DEB
1 12690U 81053AJ  25181.92996961  .00000808  00000-0  67488-3 0  9995
2 12690  82.9510 239.2148 0090964  32.6418 149.1524 13.85333973195473
Epoch: 2025-06-30T22:19Z
TLE epoch observation values (Epoch: 2025-06-30T22:19:09.374Z)
Latitude
-2.43526°
Longitude
165.49278°
Altitude
1,005.652 km
Speed
7.32 km/s
True Right ascension
03h 58m 03s
True Declination
-2° 25' 16"
Sunlit
Object was in daylight at epoch
Visualization orbit readout
Latitude
-13.75687°
Longitude
166.59084°
Altitude
1,014.148 km
Speed
7.312 km/s
Apparent Right ascension
05h 45m 49s
Apparent Declination
-29° 37' 43"
Sunlit
Object is in daylight
Visualization observer readout
Local Sidereal Time
20:24:42
Azimuth
84.873° E
Elevation
-56.102°
Doppler factor
1
Orbital elements
Apogee altitude
1,008.751 km
Perigee altitude
875.574 km
Semi-major axis
7,320.299 km
Eccentricity
0.0091
Inclination
82.951°
RAAN
239.2148°
Arg. of periapsis
32.6418°
True anomaly
Unknown
Mean anomaly
149.1524°
Eccentric anomaly
Unknown
Mean motion
3.46537 °/min
Orbital period
103.88 mins
BSTAR
0.00067488
Loading maneuver chart data...
Loading SW <> Apogee altitude chart data...
Loading historical data...
Loading historical data...
Loading historical data...
Loading historical data...
Loading historical data...
Loading historical data...
Loading historical data...

COSMOS 1275 DEB Visibility forecast

Observer location: undefined°, undefined°

Span
Click to sort rows by Start time (UTC) header in descending order
Start Az.
Max El. time (UTC)
Max El. Az.
Max El.
End time (UTC)
End Az.
11 mins2025-07-01 15:21:31.613Z3.908° NNE2025-07-01 15:26:31.613Z78.107° E40.037°2025-07-01 15:32:31.613Z158.103° S
6 mins2025-07-01 17:08:31.613Z303.612° NW2025-07-01 17:10:31.613Z279.617° WNW19.005°2025-07-01 17:14:31.613Z235.934° WSW
4 mins2025-07-02 03:04:31.613Z102.933° ESE2025-07-02 03:06:31.613Z80.121° E14.217°2025-07-02 03:08:31.613Z57.748° ENE
9 mins2025-07-02 04:46:31.613Z199.657° SSW2025-07-02 04:50:31.613Z286.44° WNW42.675°2025-07-02 04:55:31.613Z0.644° NNE
|